TELKOM 3S

Last updated on Sat Apr 13 2024 01:02:39 GMT+0100 (British Summer Time)

1 41944U 17007A 24103.64892927 -.00000372 00000+0 00000+0 0 9995 2 41944 0.0195 186.9850 0002099 183.5242 182.4241 1.00273131 26166
UTC large
Height (km)
Speed (km/s)
/
Latitude / Longitude
Inclination (degrees)
Orbital Period (minutes)
Azimuth
Elevation
Range (km)
Doppler Factor

Next 0 passes for location: London (51.5072 / 0.1276)

Sorry there are no passes over London.